www.pogodaiklimat.ru

Погода и климат >> Архив погоды >> Испания >> Бадахос


ПОГОДА в Бадахосе

  • Прогноз погоды в Бадахосе
  • Монитор погоды в Бадахосе

АРХИВ ПОГОДЫ в Бадахосе

Время (UTC), дата Ветер
(напр.,м/с)
 
Видим.   Явления Облачность Т
(С)
Тd
(С)
f
(%)
Тe
(С)
Тes
(С)
Комфортность P
(гПа)
Po
(гПа)
Тmin
(С)
Tmax
(С)
R
(мм)
R24
(мм)
S
(см)
03 10.06 З 2 н/о н/о +13.2 +9.8 80 +12 +12 1018.8 995.9
06 10.06 З 3 н/о н/о +13.7 +9.9 78 +13 +13 1018.9 996.0 +12.1
09 10.06 З 3 45 км 5/0
[Cs]
+19.6 +9.5 52 +21 +29 комфорт 1018.6 996.2
12 10.06 СЗ 4 45 км 5/0
[Cs]
+26.1 +4.5 25 +25 +37 комфорт 1016.6 994.7
15 10.06 З 5 45 км 6/0
[Cs]
+28.6 +3.4 20 +27 +33 жарко 1014.5 992.8 0.0
18 10.06 З 5 н/о дымка н/о +27.5 +3.9 22 +26 +27 жарко 1013.5 991.7 +29.2
21 10.06 З 4 н/о н/о +19.7 +4.2 36 +20 +20 1015.4 993.0
00 11.06 З 4 н/о н/о +15.3 +6.0 54 +15 +15 1015.6 992.9
03 11.06 З 3 н/о н/о +13.4 +6.5 63 +12 +12 1014.6 991.8
06 11.06 З 3 20 км ясно +13.8 +7.6 66 +13 +13 1014.0 991.2 +12.2
09 11.06 СЗ 6 20 км ясно +21.1 +7.3 41 +22 +27 комфорт 1013.3 991.1
12 11.06 СЗ 7 15 км ясно +25.1 +4.8 27 +25 +30 комфорт 1012.4 990.5
15 11.06 С 8 15 км ясно +27.2 -0.8 16 +25 +28 комфорт 1011.5 989.7 0.0
18 11.06 С 6 15 км ясно +25.7 -0.4 18 +24 +25 комфорт 1011.3 989.4 +27.3 0.0
21 11.06 СВ 1 н/о н/о +20.0 -3.0 21 +21 +21 комфорт 1012.8 990.5
00 12.06 З 3 н/о н/о +15.9 +1.9 39 +16 +16 1013.5 990.9
03 12.06 З 2 н/о н/о +14.5 +2.4 44 +15 +15 1013.0 990.3
06 12.06 Ю 1 15 км ясно +14.6 +3.4 47 +16 +17 1013.4 990.7 +12.2
09 12.06 СВ 2 15 км ясно +21.1 +2.4 29 +21 +32 комфорт 1013.1 990.9
12 12.06 СЗ 3 15 км ясно +26.4 -1.5 16 +24 +41 комфорт 1011.4 989.6
15 12.06 З 5 15 км ясно +29.6 -4.0 11 +26 +35 жарко 1008.8 987.3
18 12.06 СЗ 6 15 км ясно +27.5 -4.5 12 +25 +25 комфорт 1008.0 986.3 +29.8
21 12.06 З 5 н/о н/о +19.2 +5.3 40 +19 +19 1010.2 987.9
00 13.06 З 4 н/о н/о +14.1 +5.2 55 +13 +13 1011.6 988.9
03 13.06 Ю 1 н/о н/о +10.9 +5.6 70 +11 +11 1011.6 988.6
06 13.06 ЮЗ 2 н/о н/о +10.7 +7.0 78 +10 +11 1011.8 988.8 +9.4
09 13.06 ЮЗ 2 20 км ясно +16.3 +7.2 55 +17 +28 1012.0 989.5
12 13.06 СЗ 3 15 км ясно +22.5 +5.8 34 +23 +40 комфорт 1010.4 988.4
15 13.06 З 4 15 км ясно +26.9 +4.0 23 +26 +36 жарко 1008.5 986.8
18 13.06 З 6 15 км 4/0
[Ci sp]
+25.3 +2.0 22 +24 +25 комфорт 1008.2 986.4 +27.5
21 13.06 З 5 н/о н/о +18.4 +5.9 44 +18 +18 1011.5 989.1
00 14.06 З 3 н/о н/о +13.9 +6.5 61 +13 +13 1013.2 990.4
03 14.06 ЮЗ 1 н/о н/о +11.3 +6.6 73 +12 +12 1013.7 990.7
06 14.06 ЮЗ 2 20 км 1/0
[Ci fib]
+11.7 +8.0 78 +11 +12 1014.8 991.8 +10.1
09 14.06 З 5 20 км 3/3 2000 м
[Cu hum Ci fib]
+17.9 +7.3 50 +18 +22 1015.5 993.0
12 14.06 З 5 15 км 6/6 1500 м
[St Ci fib]
+21.1 +3.8 32 +21 +25 комфорт 1016.3 994.0
15 14.06 З 6 15 км 8/8 1500 м
[St]
+23.2 +4.7 30 +23 +25 комфорт 1015.8 993.7
18 14.06 З 5 20 км 6/6 1500 м
[St Ci sp]
+20.7 +6.2 39 +22 +22 комфорт 1016.8 994.5 +23.5
21 14.06 З 3 н/о н/о +16.1 +6.5 53 +16 +16 1019.0 996.3
00 15.06 З 3 н/о н/о +13.8 +7.1 64 +13 +13 1020.3 997.4
03 15.06 З 2 н/о н/о +12.6 +7.7 72 +12 +12 1020.4 997.4
06 15.06 ЮЗ 2 30 км ясно +12.4 +8.3 76 +12 +13 1020.8 997.8 +11.1
09 15.06 СЗ 2 30 км ясно +18.0 +8.0 52 +19 +30 1021.4 998.8
12 15.06 З 2 30 км ясно +23.1 +4.6 30 +23 +43 комфорт 1020.3 998.1
15 15.06 СЗ 2 30 км ясно +25.7 +4.2 25 +25 +39 комфорт 1018.2 996.2
18 15.06 З 3 30 км ясно +27.1 +3.5 22 +26 +28 жарко 1016.8 994.9 +27.5
21 15.06 З 2 н/о н/о +22.0 +5.0 33 +22 +22 комфорт 1017.7 995.5
00 16.06 З 3 н/о н/о +17.4 +8.8 57 +18 +18 1018.2 995.6
03 16.06 З 2 н/о н/о +14.8 +7.8 63 +15 +15 1017.6 994.8
06 16.06 З 2 40 км 9/0
[Cs]
+14.7 +8.2 65 +15 +15 1018.2 995.4 +13.5
09 16.06 СВ 2 35 км 10/0
[Cc]
+20.7 +9.9 50 +23 +32 комфорт 1018.0 995.7
12 16.06 ЮВ 2 45 км 9/0
[Ac trans Cs]
+27.6 +8.5 30 +27 +45 жарко 1016.5 994.7
15 16.06 СЗ 3 45 км 10/0
[Ac trans Cs]
+30.3 +4.8 20 +28 +39 жарко 1014.8 993.2
18 16.06 З 3 50 км 1/0
[As trans Ci]
+31.1 -1.7 12 +28 +30 жарко 1014.0 992.5 +31.7
21 16.06 З 3 н/о н/о +24.2 +6.5 32 +24 +24 комфорт 1015.9 993.9
00 17.06 ЮЗ 2 н/о н/о +18.9 +10.7 59 +20 +20 1017.6 995.2

 

Местоположение метеостанции Бадахос (Испания): широта 38.88 долгота -6.83 высота над уровнем моря 192 м.

В архиве по умолчанию представлена погода в Бадахосе за последнюю неделю. Архивные данные за месяц целиком и за предыдущие месяцы, начиная с января 2011 года, Вы можете получить, выбрав интересующий диапазон дат из раскрывающегося списка и нажав кнопку "Ввод!".


*Определитесь, кто Вы:
робот инопланетянин человек

Внимание! Время в таблицах - всемирное. Для получения местного времени необходимо прибавить поправку, которая равна 1 ч.

Смотрите также архив погоды в соседних городах и на ближайших метеорологических станциях:

Погода в Мериде (Испания) (38 км)
Погода в Херес-де-лос-Кабалье (Испания) (65 км)
Погода в Порталегре (Португалия) (68 км)
Погода в Валенсия-де-Алькантаре (Испания) (70 км)
Погода в Касересе (Испания) (79 км)
Погода в Дон Бенито (Испания) (83 км)
Погода в Эворе (Португалия) (101 км)
Погода в Льерене (Испания) (101 км)
Погода в Трухильо (Испания) (108 км)
Погода в Алахар - Кабезо Молин (Испания) (113 км)

Пояснения к столбцам:

Ветер - указаны скорость ветра в м/с - средняя за 10 мин, порывы в срок и между сроками (в фигурных скобках) и направление, откуда дует ветер: С - северный, СВ - северо-восточный, В - восточный, ЮВ - юго-восточный, Ю - южный, ЮЗ - юго-западный, З - западный, СЗ - северо-западный.
Видимость - горизонтальная дальность видимости в метрах или километрах. При видимости от 1 до 10 км при отсутствии осадков обычно наблюдается дымка, при ухудшении видимости до 1 км и менее - туман. В сухую погоду видимость может ухудшаться дымом, пылью или мглою.
Явления - указаны атмосферные явления, наблюдавшиеся в срок или в последний час перед сроком; фигурными скобками обозначены явления, наблюдавшиеся между сроками (за 1-3 часа до срока); квадратными скобками обозначены град или гололедные отложения с указанием их диаметра в мм.
Облачность - указаны через наклонную черту общая и нижняя облачность в баллах и высота нижней границы облаков в метрах; квадратными скобками обозначены формы облаков: Ci - перистые, Cs - перисто-слоистые, Cc - перисто-кучевые, Ac - высококучевые, As - высокослоистые, Sc - слоисто-кучевые, Ns - слоисто-дождевые, Cu - кучевые, Cb - кучево-дождевые. Подробнее классификацию облаков см. в Атласе облаков (PDF).
T - Температура воздуха - температура, измеренная на высоте 2 м над землей.
Td - Температура точки росы - температура, при понижении до которой содержащийся в воздухе водяной пар достигнет насыщения.
f - Относительная влажность воздуха - влажноcть воздуха, измеренная на высоте 2 м над землей.
Te - Эффективная температура - температура, которую ощущает одетый по сезону человек в тени. Характеристика душности погоды. При расчете учитывается влияние влажности воздуха и скорости ветра на теплоощущения человека.
Tes - Эффективная температура на солнце - температура, которую ощущает человек, с поправкой на солнечный нагрев. Характеристика знойности погоды. Зависит от высоты солнца над горизонтом, облачности и скорости ветра. Ночью, в пасмурную погоду, а также при ветре 12 м/с и более поправка равна нулю.
P - Атмосферное давление - приведенное к уровню моря атмосферное давление.
Po - Атмосферное давление - измеренное на уровне метеостанции атмосферное давление.
Tmin - Минимальная температура - минимум температуры воздуха на высоте 2 м над землей.
Tmax - Максимальная температура - максимум температуры воздуха на высоте 2 м над землей.
R - Количество осадков - Количество выпавших осадков за период времени, мм. При наведении курсора мыши на число - период времени, за который выпало указанное количество осадков.
R24 - Количество осадков - Количество выпавших осадков за 24 часа, мм.
S - Снежный покров - Высота снежного покрова, см. При наведении курсора мыши на число - состояние снежного покрова и степень покрытия местности в баллах.